www.pogodaiklimat.ru

Погода и климат >> Архив погоды >> Япония >> Аджиро


ПОГОДА в Аджиро

  • Прогноз погоды в Аджиро
  • Монитор погоды в Аджиро

АРХИВ ПОГОДЫ в Аджиро

Время (UTC), дата Ветер
(напр.,м/с)
 
Видим.   Явления Облачность Т
(С)
Тd
(С)
f
(%)
Тe
(С)
Тes
(С)
Комфортность P
(гПа)
Po
(гПа)
Тmin
(С)
Tmax
(С)
R
(мм)
R24
(мм)
S
(см)
01 10.06 С 6 20 км в посл. час дождь н/о +18.2 +16.5 90 +18 +18 1004.5 996.5
02 10.06 С 6 20 км н/о +18.7 +16.3 86 +19 +19 1003.9 995.9
03 10.06 С 6 20 км слаб. дождь н/о +18.8 +16.2 85 +19 +19 1003.2 995.2
04 10.06 С 4 4800 м дождь н/о +17.9 +16.6 92 +18 +18 1003.1 995.1
05 10.06 С 4 2700 м дождь н/о +17.3 +17.0 98 +17 +17 1003.3 995.3
06 10.06 С 8 4600 м дождь н/о +17.2 +16.6 96 +16 +16 1002.9 994.9 22
07 10.06 СВ 4 1800 м сильн. дождь н/о +16.9 +16.3 96 +16 +16 1003.9 995.9
08 10.06 С 7 5000 м дождь н/о +16.6 +16.0 96 +15 +15 1004.1 996.1
09 10.06 С 4 3800 м дождь н/о +16.8 +16.2 96 +16 +16 1004.0 996.0
10 10.06 СВ 1 5000 м слаб. дождь н/о +16.6 +15.5 93 +17 +17 1004.6 996.6
11 10.06 СВ 2 9000 м слаб. дождь н/о +16.4 +15.8 96 +16 +16 1005.2 997.2
12 10.06 СВ 2 15 км слаб. дождь н/о +16.4 +15.1 92 +17 +17 1005.4 997.4 +19.2 58
13 10.06 СВ 2 20 км в посл. час дождь н/о +16.9 +14.9 88 +17 +17 1005.1 997.1
14 10.06 СВ 7 20 км н/о +17.4 +14.7 84 +16 +16 1005.0 997.0
15 10.06 С 8 20 км слаб. дождь н/о +16.9 +14.0 83 +16 +16 1004.9 996.9
16 10.06 С 10 20 км слаб. дождь н/о +17.0 +14.5 85 +15 +15 1004.9 996.9
17 10.06 С 3 12 км слаб. дождь н/о +16.4 +14.8 90 +16 +16 1005.0 997.0
18 10.06 Ю 2 20 км в посл. час дождь н/о +15.6 +14.8 95 +16 +16 1005.2 997.1 0.0
19 10.06 Ю 2 20 км н/о +15.4 +14.8 96 +15 +15 1005.6 997.5
20 10.06 ЮЗ 1 20 км н/о +15.3 +14.5 95 +16 +16 1006.0 997.9
21 10.06 Ю 1 20 км н/о +17.1 +14.4 84 +18 +18 1005.9 997.9
22 10.06 ЮВ 1 20 км н/о +18.7 +15.0 79 +21 +21 комфорт 1006.2 998.2
23 10.06 СВ 2 20 км н/о +18.9 +14.2 74 +20 +20 1006.7 998.7
00 11.06 С 7 20 км н/о +18.6 +13.7 73 +19 +19 1006.5 998.5 +15.1 0.0
01 11.06 С 4 20 км н/о +19.5 +13.9 70 +21 +21 комфорт 1006.6 998.6
02 11.06 С 5 20 км н/о +20.2 +13.7 66 +22 +22 комфорт 1006.6 998.7
03 11.06 С 2 20 км н/о +20.6 +13.6 64 +24 +24 комфорт 1006.4 998.5
04 11.06 В 2 20 км н/о +20.8 +14.7 68 +25 +25 комфорт 1006.4 998.5
05 11.06 Ю 2 20 км н/о +22.2 +14.8 63 +26 +26 душно 1005.9 998.0
06 11.06 В 2 20 км н/о +20.9 +13.1 61 +24 +24 комфорт 1005.9 998.0
07 11.06 Ю 1 10 км слаб. дождь н/о +19.5 +16.0 80 +23 +23 комфорт 1006.1 998.1
08 11.06 Ю 1 15 км слаб. дождь н/о +18.9 +17.4 91 +21 +21 комфорт 1005.9 997.9
09 11.06 ЮВ 1 11 км слаб. дождь н/о +17.7 +16.2 91 +19 +19 1006.5 998.5
10 11.06 Ю 1 20 км слаб. дождь н/о +17.1 +15.8 92 +18 +18 1006.8 998.8
11 11.06 Ю 1 11 км слаб. дождь н/о +17.2 +15.9 92 +18 +18 1007.3 999.3
12 11.06 ЮЗ 1 6000 м слаб. дождь н/о +16.8 +15.8 94 +18 +18 1007.7 999.7 +23.1 1
13 11.06 ЮЗ 1 2000 м дождь н/о +16.6 +16.3 98 +17 +17 1008.1 1000.0
14 11.06 С 3 3200 м дождь н/о +16.6 +16.5 99 +16 +16 1008.3 1000.2
15 11.06 ЮВ 2 5000 м дождь н/о +15.5 +15.0 97 +16 +16 1008.3 1000.2
16 11.06 С 2 2700 м дождь н/о +15.6 +15.3 98 +16 +16 1008.3 1000.2
17 11.06 С 2 8000 м слаб. дождь н/о +15.4 +15.1 98 +15 +15 1007.8 999.7
18 11.06 ЮЗ 1 15 км слаб. дождь н/о +15.4 +14.8 96 +16 +16 1007.6 999.5 25
19 11.06 С 2 18 км в посл. час дождь н/о +15.7 +14.9 95 +16 +16 1007.9 999.8
20 11.06 С 4 20 км в посл. час дождь н/о +15.7 +14.1 90 +15 +15 1008.2 1000.1
21 11.06 В 2 20 км {дождь} н/о +15.7 +13.4 86 +16 +16 1008.7 1000.6
22 11.06 С 2 20 км н/о +16.0 +13.5 85 +16 +16 1009.0 1000.9
23 11.06 СЗ 1 20 км н/о +17.1 +14.6 85 +18 +18 1009.2 1001.1
00 12.06 С 2 20 км {дождь} н/о +17.7 +13.6 77 +18 +18 1009.3 1001.3 +15.2 25
01 12.06 С 2 20 км н/о +18.5 +13.2 71 +20 +20 1009.1 1001.1
02 12.06 С 2 20 км н/о +18.7 +13.6 72 +20 +20 1008.9 1000.9
03 12.06 СВ 2 20 км н/о +21.0 +15.6 71 +25 +25 комфорт 1008.5 1000.6
04 12.06 С 2 20 км н/о +20.6 +15.8 74 +24 +24 комфорт 1008.1 1000.2
05 12.06 С 2 20 км н/о +19.9 +14.1 69 +23 +23 комфорт 1008.0 1000.0
06 12.06 С 2 20 км н/о +21.0 +14.9 68 +25 +25 комфорт 1007.8 999.9
07 12.06 СВ 2 20 км н/о +19.5 +13.2 67 +22 +22 комфорт 1008.1 1000.1
08 12.06 С 2 20 км н/о +20.4 +14.3 68 +24 +24 комфорт 1008.2 1000.3
09 12.06 В 1 20 км н/о +18.9 +14.4 75 +22 +22 комфорт 1008.9 1000.9
10 12.06 Ю 1 9000 м слаб. дождь н/о +17.4 +14.9 85 +18 +18 1009.7 1001.7
11 12.06 Ю 1 8000 м слаб. дождь н/о +16.4 +15.4 94 +17 +17 1009.9 1001.8
12 12.06 Ю 1 7000 м в посл. час дождь н/о +16.1 +15.5 96 +17 +17 1010.7 1002.6 +21.1 2
13 12.06 Ю 1 18 км н/о +16.7 +15.4 92 +18 +18 1011.2 1003.1
14 12.06 В 1 15 км н/о +16.7 +15.6 93 +18 +18 1011.0 1002.9
15 12.06 ЮВ 1 17 км н/о +17.4 +15.8 90 +18 +18 1011.2 1003.1
16 12.06 Ю 1 8000 м слаб. дождь н/о +16.9 +16.3 96 +18 +18 1011.4 1003.3
17 12.06 ЮЗ 1 9000 м в посл. час дождь н/о +16.3 +15.5 95 +18 +18 1011.2 1003.1
18 12.06 Ю 2 12 км {дождь} н/о +16.6 +15.5 93 +17 +17 1011.2 1003.1 0.0
19 12.06 Ю 1 8000 м дымка н/о +16.0 +15.4 96 +17 +17 1011.3 1003.2
20 12.06 ЮЗ 1 9000 м дымка н/о +16.2 +15.6 96 +17 +17 1011.9 1003.8
21 12.06 С 1 11 км н/о +17.5 +16.5 94 +19 +19 1012.5 1004.4
22 12.06 СВ 2 12 км н/о +18.0 +16.7 92 +19 +19 1013.3 1005.2
23 12.06 СВ 2 12 км н/о +18.4 +15.8 85 +20 +20 1013.4 1005.4
00 13.06 СВ 3 19 км н/о +19.9 +16.2 79 +23 +23 комфорт 1013.6 1005.6 +15.8 0.0
01 13.06 В 2 20 км н/о +20.2 +15.6 75 +23 +23 комфорт 1013.6 1005.6
02 13.06 ЮВ 2 19 км н/о +21.4 +16.4 73 +25 +25 комфорт 1013.3 1005.3
03 13.06 ЮВ 2 20 км н/о +22.5 +18.1 76 +28 +28 душно 1013.1 1005.2
04 13.06 ЮВ 2 20 км н/о +22.5 +17.6 74 +28 +28 душно 1012.7 1004.8
05 13.06 ЮВ 2 20 км н/о +22.8 +17.3 71 +28 +28 душно 1012.3 1004.4
07 13.06 Ю 2 20 км н/о +23.7 +17.9 70 +28 +28 душно 1012.2 1004.3
08 13.06 ЮВ 3 20 км н/о +22.8 +17.3 71 +28 +28 душно 1012.5 1004.6
09 13.06 Ю 2 20 км н/о +23.0 +16.6 67 +28 +28 душно 1013.0 1005.1
10 13.06 Ю 2 20 км н/о +21.0 +14.9 68 +25 +25 комфорт 1013.5 1005.5
11 13.06 Ю 2 20 км н/о +20.9 +15.0 69 +25 +25 комфорт 1014.1 1006.1
12 13.06 Ю 3 20 км н/о +20.8 +15.4 71 +24 +24 комфорт 1014.3 1006.3 +24.3
13 13.06 ЮЗ 2 20 км н/о +20.5 +16.7 79 +25 +25 комфорт 1014.6 1006.6
14 13.06 Ю 1 20 км н/о +19.9 +16.6 81 +24 +24 комфорт 1014.5 1006.5
15 13.06 Ю 1 20 км н/о +18.9 +16.2 84 +21 +21 комфорт 1014.3 1006.3
16 13.06 Ю 1 20 км н/о +19.5 +16.0 80 +23 +23 комфорт 1014.4 1006.4
17 13.06 Ю 2 20 км н/о +19.2 +16.1 82 +22 +22 комфорт 1014.2 1006.2
18 13.06 ЮЗ 1 20 км н/о +18.1 +15.9 87 +20 +20 1014.0 1005.9
19 13.06 Ю 1 20 км н/о +19.0 +15.5 80 +21 +21 комфорт 1014.2 1006.2
20 13.06 Ю 1 20 км н/о +17.9 +15.7 87 +19 +19 1014.7 1006.6
21 13.06 ЮЗ 1 20 км н/о +19.3 +16.9 86 +22 +22 комфорт 1014.8 1006.8
22 13.06 В 1 20 км н/о +20.7 +16.3 76 +26 +26 душно 1014.7 1006.7
23 13.06 В 1 20 км н/о +20.4 +16.0 76 +24 +24 комфорт 1014.7 1006.7
00 14.06 В 2 20 км н/о +21.3 +16.5 74 +25 +25 комфорт 1014.7 1006.7 +17.6
01 14.06 С 2 20 км н/о +22.1 +18.1 78 +27 +27 душно 1014.7 1006.8
02 14.06 СВ 3 20 км н/о +22.2 +17.8 76 +27 +27 душно 1014.5 1006.6
03 14.06 В 2 20 км н/о +21.9 +17.9 78 +27 +27 душно 1013.9 1006.0
04 14.06 В 2 20 км н/о +21.8 +17.2 75 +26 +26 душно 1013.8 1005.9
05 14.06 В 2 20 км н/о +22.4 +17.3 73 +27 +27 душно 1013.4 1005.5
06 14.06 СВ 2 20 км н/о +22.0 +17.6 76 +27 +27 душно 1013.1 1005.2
07 14.06 С 1 20 км слаб. дождь н/о +21.1 +17.3 79 +25 +25 комфорт 1013.0 1005.0
08 14.06 В 1 20 км слаб. дождь н/о +20.7 +18.1 85 +26 +26 душно 1012.6 1004.6
09 14.06 З 1 20 км в посл. час дождь н/о +20.7 +18.1 85 +26 +26 душно 1012.6 1004.6
10 14.06 СВ 1 20 км н/о +20.3 +17.3 83 +25 +25 комфорт 1012.7 1004.7
11 14.06 Ю 1 20 км слаб. дождь н/о +20.0 +17.4 85 +24 +24 комфорт 1013.0 1005.0
12 14.06 штиль 0 20 км слаб. дождь н/о +19.4 +18.1 92 +21 +21 комфорт 1012.8 1004.8 +23.5 0.0
13 14.06 ЮВ 1 8000 м слаб. дождь н/о +19.5 +18.3 93 +23 +23 комфорт 1012.0 1004.0
14 14.06 Ю 1 11 км слаб. дождь н/о +19.4 +18.4 94 +23 +23 комфорт 1011.0 1003.0
15 14.06 ЮЗ 2 7000 м слаб. дождь н/о +18.9 +18.1 95 +21 +21 комфорт 1009.9 1001.9
16 14.06 ЮЗ 3 5000 м слаб. дождь н/о +19.1 +18.5 96 +21 +21 комфорт 1008.9 1000.9
17 14.06 С 2 5000 м слаб. дождь н/о +18.8 +18.2 96 +21 +21 комфорт 1008.2 1000.2
18 14.06 ЮЗ 2 4700 м слаб. дождь н/о +17.9 +17.4 97 +18 +18 1007.6 999.6 8
19 14.06 ЮЗ 3 4800 м слаб. дождь н/о +18.1 +17.6 97 +18 +18 1006.8 998.8
20 14.06 С 2 4500 м слаб. дождь н/о +17.6 +17.1 97 +18 +18 1006.6 998.6
21 14.06 С 5 2200 м сильн. дождь н/о +16.6 +16.3 98 +16 +16 1006.5 998.5
22 14.06 С 10 2500 м дождь н/о +16.2 +15.9 98 +14 +14 1006.5 998.4
23 14.06 С 13 4000 м слаб. дождь н/о +16.0 +15.7 98 +14 +14 1005.6 997.5
00 15.06 С 12 4200 м слаб. дождь н/о +15.9 +15.4 97 +14 +14 1005.0 996.9 +15.8 35
01 15.06 С 11 5000 м слаб. дождь н/о +16.5 +16.0 97 +15 +15 1003.8 995.8
02 15.06 С 9 18 км слаб. дождь н/о +16.7 +15.6 93 +15 +15 1002.8 994.8
03 15.06 С 7 5000 м дождь н/о +17.4 +16.1 92 +16 +16 1000.6 992.6
04 15.06 С 5 3500 м дождь н/о +17.0 +16.2 95 +16 +16 999.4 991.4
05 15.06 С 5 9000 м слаб. дождь н/о +17.4 +16.4 94 +17 +17 998.1 990.1
06 15.06 СВ 2 5000 м дождь н/о +17.4 +16.8 96 +18 +18 997.5 989.6 24
07 15.06 СВ 2 5000 м слаб. дождь н/о +17.8 +16.5 92 +18 +18 995.4 987.5
08 15.06 В 2 3700 м дождь н/о +17.7 +16.9 95 +18 +18 995.2 987.3
09 15.06 ЮВ 3 6000 м слаб. дождь н/о +17.4 +17.1 98 +18 +18 994.7 986.8
10 15.06 Ю 1 20 км слаб. дождь н/о +17.4 +17.3 99 +19 +19 994.2 986.3
11 15.06 В 1 20 км слаб. дождь н/о +17.7 +17.4 98 +19 +19 994.0 986.1
12 15.06 Ю 1 20 км слаб. дождь н/о +17.7 +17.4 98 +19 +19 994.0 986.1 +18.1 30
13 15.06 Ю 1 20 км слаб. дождь н/о +17.5 +17.2 98 +19 +19 993.1 985.2
14 15.06 ЮВ 2 1900 м сильн. дождь н/о +17.4 +16.9 97 +18 +18 992.0 984.1
15 15.06 Ю 1 5000 м слаб. дождь н/о +17.2 +17.1 99 +18 +18 990.6 982.7
16 15.06 ЮЗ 2 19 км слаб. дождь н/о +16.9 +16.9 100 +17 +17 989.1 981.2
17 15.06 ЮВ 1 14 км слаб. дождь н/о +17.3 +17.2 99 +18 +18 988.4 980.5
18 15.06 В 2 20 км в посл. час дождь н/о +18.0 +18.0 100 +19 +19 988.0 980.1 8
19 15.06 З 4 20 км н/о +19.1 +17.4 90 +21 +21 комфорт 987.3 979.5
20 15.06 З 13 20 км в посл. час дождь н/о +19.8 +16.7 82 +21 +21 комфорт 987.6 979.8
21 15.06 З 16 20 км {дождь} н/о +20.3 +15.7 75 +22 +22 комфорт 987.7 979.9
22 15.06 З 16 20 км н/о +20.9 +15.5 71 +23 +23 комфорт 988.2 980.4
23 15.06 З 15 20 км н/о +21.8 +15.4 67 +25 +25 комфорт 988.7 981.0
00 16.06 З 15 20 км {дождь} н/о +22.6 +15.5 64 +27 +27 душно 989.1 981.4 +16.8 8
01 16.06 З 17 20 км н/о +23.5 +15.0 59 +26 +26 жарко 989.0 981.3
02 16.06 З 20 20 км н/о +24.4 +15.1 56 +27 +27 жарко 989.1 981.4
03 16.06 З 19 20 км н/о +24.9 +14.7 53 +28 +28 жарко 989.8 982.1
04 16.06 З 16 20 км н/о +25.1 +14.6 52 +28 +28 жарко 990.7 983.0
05 16.06 З 15 20 км н/о +25.9 +14.1 48 +28 +28 жарко 991.1 983.5
06 16.06 З 14 20 км н/о +26.4 +13.2 44 +28 +28 жарко 991.8 984.2
07 16.06 З 15 20 км н/о +25.9 +13.4 46 +28 +28 жарко 992.6 984.9
08 16.06 З 13 20 км н/о +25.1 +13.0 47 +27 +27 жарко 993.5 985.8
09 16.06 З 15 20 км н/о +23.9 +12.9 50 +26 +26 жарко 993.9 986.2
10 16.06 З 13 20 км н/о +23.0 +12.3 51 +26 +26 жарко 995.5 987.7
11 16.06 З 5 20 км н/о +21.8 +12.4 55 +24 +24 комфорт 998.1 990.3
12 16.06 З 5 20 км н/о +20.7 +12.9 61 +23 +23 комфорт 999.0 991.1 +26.7
13 16.06 З 14 20 км н/о +20.6 +12.8 61 +22 +22 комфорт 998.6 990.7
14 16.06 ЮЗ 12 20 км н/о +20.4 +12.4 60 +22 +22 комфорт 999.6 991.7
15 16.06 З 10 20 км н/о +20.2 +12.5 61 +21 +21 комфорт 1000.4 992.5
16 16.06 З 5 20 км н/о +18.7 +12.9 69 +19 +19 1001.6 993.7
17 16.06 З 5 20 км н/о +18.7 +12.9 69 +19 +19 1001.9 994.0
18 16.06 ЮЗ 4 20 км н/о +18.9 +12.7 67 +20 +20 1002.8 994.9
19 16.06 Ю 2 20 км н/о +19.4 +11.5 60 +21 +21 комфорт 1003.6 995.7
20 16.06 Ю 1 20 км н/о +20.3 +11.0 55 +23 +23 комфорт 1004.7 996.8
21 16.06 С 1 20 км н/о +19.5 +13.7 69 +22 +22 комфорт 1006.5 998.5
22 16.06 ЮЗ 2 20 км н/о +20.5 +14.6 69 +24 +24 комфорт 1007.2 999.3
23 16.06 С 1 20 км н/о +22.9 +12.8 53 +26 +26 жарко 1007.7 999.8
00 17.06 СВ 2 20 км н/о +23.5 +14.0 55 +26 +26 жарко 1007.9 1000.1 +18.4

 

Местоположение метеостанции Аджиро (Япония): широта 35.05 долгота 139.10 высота над уровнем моря 68 м.

В архиве по умолчанию представлена погода в Аджиро за последнюю неделю. Архивные данные за месяц целиком и за предыдущие месяцы, начиная с января 2011 года, Вы можете получить, выбрав интересующий диапазон дат из раскрывающегося списка и нажав кнопку "Ввод!".


*Определитесь, кто Вы:
робот инопланетянин человек

Внимание! Время в таблицах - всемирное. Для получения местного времени необходимо прибавить поправку, которая равна 9 ч.

Смотрите также архив погоды в соседних городах и на ближайших метеорологических станциях:

Погода в Мисиме (Япония) (17 км)
Погода на Осиме (Япония) (42 км)
Погода на Фудзияме (Япония) (49 км)
Погода в Иродзаки (Япония) (55 км)
Погода на Озере Кавагучи (Япония) (59 км)
Погода в Сидзуоке (Япония) (64 км)
Погода в Иокогаме (Япония) (65 км)
Погода в Татеяме (Япония) (70 км)
Погода в Кофу (Япония) (85 км)
Погода в Токио (Япония) (92 км)

Пояснения к столбцам:

Ветер - указаны скорость ветра в м/с - средняя за 10 мин, порывы в срок и между сроками (в фигурных скобках) и направление, откуда дует ветер: С - северный, СВ - северо-восточный, В - восточный, ЮВ - юго-восточный, Ю - южный, ЮЗ - юго-западный, З - западный, СЗ - северо-западный.
Видимость - горизонтальная дальность видимости в метрах или километрах. При видимости от 1 до 10 км при отсутствии осадков обычно наблюдается дымка, при ухудшении видимости до 1 км и менее - туман. В сухую погоду видимость может ухудшаться дымом, пылью или мглою.
Явления - указаны атмосферные явления, наблюдавшиеся в срок или в последний час перед сроком; фигурными скобками обозначены явления, наблюдавшиеся между сроками (за 1-3 часа до срока); квадратными скобками обозначены град или гололедные отложения с указанием их диаметра в мм.
Облачность - указаны через наклонную черту общая и нижняя облачность в баллах и высота нижней границы облаков в метрах; квадратными скобками обозначены формы облаков: Ci - перистые, Cs - перисто-слоистые, Cc - перисто-кучевые, Ac - высококучевые, As - высокослоистые, Sc - слоисто-кучевые, Ns - слоисто-дождевые, Cu - кучевые, Cb - кучево-дождевые. Подробнее классификацию облаков см. в Атласе облаков (PDF).
T - Температура воздуха - температура, измеренная на высоте 2 м над землей.
Td - Температура точки росы - температура, при понижении до которой содержащийся в воздухе водяной пар достигнет насыщения.
f - Относительная влажность воздуха - влажноcть воздуха, измеренная на высоте 2 м над землей.
Te - Эффективная температура - температура, которую ощущает одетый по сезону человек в тени. Характеристика душности погоды. При расчете учитывается влияние влажности воздуха и скорости ветра на теплоощущения человека.
Tes - Эффективная температура на солнце - температура, которую ощущает человек, с поправкой на солнечный нагрев. Характеристика знойности погоды. Зависит от высоты солнца над горизонтом, облачности и скорости ветра. Ночью, в пасмурную погоду, а также при ветре 12 м/с и более поправка равна нулю.
P - Атмосферное давление - приведенное к уровню моря атмосферное давление.
Po - Атмосферное давление - измеренное на уровне метеостанции атмосферное давление.
Tmin - Минимальная температура - минимум температуры воздуха на высоте 2 м над землей.
Tmax - Максимальная температура - максимум температуры воздуха на высоте 2 м над землей.
R - Количество осадков - Количество выпавших осадков за период времени, мм. При наведении курсора мыши на число - период времени, за который выпало указанное количество осадков.
R24 - Количество осадков - Количество выпавших осадков за 24 часа, мм.
S - Снежный покров - Высота снежного покрова, см. При наведении курсора мыши на число - состояние снежного покрова и степень покрытия местности в баллах.